[[{"header":{"parameterUnit":"m.s-1","parameterCategory":1,"la1":30.2991,"la2":30.254,"lo1":-89.0895,"lo2":-89.0444,"dy":0.0017,"dx":0.0017,"nx":28,"ny":28,"refTime":"2025-04-26T21:00:00:Z","depth":0,"parameterNumber":2,"parameterNumberName":"U-component_of_WINDS"},"data":[0,0,0,0,0,0,0,0,0,0,0,0,0,0,0,0,0,0,0,0,0,0,0,0,0,0,0,0,0,0,0,0,0,0,0,0,0,0,0,0,0,0,0,0,0,0,0,0,0,0,0,0,0,0,0,0,0,0,1.1257,1.1258,0,1.1443,1.1445,1.1447,1.1531,1.153,1.153,1.153,1.1724,1.1729,1.1734,0,0,0,0,0,0,0,0,0,0,0,0,0,1.0974,1.0979,1.1256,1.1259,1.1261,1.1443,1.1445,1.1448,1.1531,1.153,1.153,1.153,1.1722,1.1728,1.1735,0,0,0,0,0,0,0,0,0,0,0,0,0,1.1122,1.0981,1.1256,1.1324,1.1332,1.1442,1.1445,1.1448,1.1531,1.153,1.153,1.153,1.172,1.1728,1.1736,1.1793,0,0,1.176,1.1764,0,0,0,0,0,0,0,0,1.1114,1.1133,1.1312,1.132,1.1329,1.1463,1.1417,1.1564,1.1531,1.1455,1.153,1.1529,1.1637,1.1652,1.1688,1.1802,1.181,1.1761,1.1766,1.1769,1.1772,0,0,0,0,0,0,0,1.1104,1.1125,1.133,1.1314,1.1325,1.1346,1.1367,1.1445,1.1546,1.1462,1.1468,1.1489,1.1642,1.168,1.1693,1.1813,1.1761,1.1768,1.1773,1.1776,1.1983,1.1984,0,0,0,0,0,0,1.1082,1.1116,1.1324,1.1336,1.1218,1.1352,1.1375,1.142,1.1546,1.1564,1.1489,1.1492,1.1667,1.1684,1.17,1.1776,1.1769,1.1777,1.1781,1.1982,1.1983,1.1984,0,0,0,0,0,0,1.1075,1.11,1.1317,1.1228,1.1257,1.1357,1.1407,1.1424,1.1462,1.1566,1.1585,1.1509,1.1667,1.1689,1.1769,1.1784,1.178,1.1788,1.1982,1.1983,1.1984,1.1926,0,0,0,0,0,0,1.1067,1.1097,1.1119,1.1228,1.1261,1.1381,1.1408,1.1428,1.1476,1.1482,1.159,1.1608,1.1668,1.1756,1.1777,1.1795,1.1794,1.1981,1.1982,1.1983,1.1927,1.1925,1.1924,0,0,0,0,0,1.1057,1.1096,1.1119,1.1144,1.1291,1.1382,1.1401,1.1469,1.1477,1.15,1.1567,1.1604,1.1778,1.1764,1.1788,1.1808,1.198,1.1982,1.1983,1.1928,1.1926,1.1924,0,0,0,0,0,0,1.0987,1.1111,1.1139,1.1214,1.1287,1.1396,1.1427,1.1464,1.1537,1.154,1.1622,1.1646,1.1718,1.1772,1.1753,1.187,1.1883,1.1889,1.1833,1.1831,1.1829,1.1815,1.1801,0,0,0,0,0,1.098,1.1042,1.1148,1.1205,1.1239,1.1327,1.1369,1.1415,1.1494,1.1525,1.1598,1.1674,1.1746,1.1791,1.1863,1.1935,1.1961,1.1961,1.1959,1.1957,1.1962,1.2005,1.2006,1.1989,1.1989,1.1989,0,0,1.0967,1.1043,1.1077,1.1192,1.1254,1.1318,1.1352,1.1418,1.1467,1.1536,1.1615,1.1671,1.1761,1.1837,1.1875,1.1884,1.1972,1.1959,1.1956,1.1963,1.2006,1.2008,1.2009,1.199,1.199,1.199,0,0,1.0976,1.1039,1.1093,1.1154,1.1246,1.1304,1.1317,1.1421,1.146,1.1541,1.1594,1.1654,1.1776,1.1838,1.1885,1.1918,1.1955,1.1939,1.1929,1.1969,1.1971,1.1972,1.1984,1.1988,1.1943,1.1943,1.1943,0,1.0948,1.1046,1.1116,1.118,1.1229,1.1293,1.1349,1.1405,1.1517,1.155,1.1558,1.1713,1.1778,1.187,1.1877,1.1913,1.1931,1.1927,1.1965,1.1967,1.197,1.1982,1.1986,1.194,1.1941,1.1941,1.1941,0,1.1007,1.1074,1.1107,1.1212,1.1265,1.1324,1.1405,1.145,1.1491,1.1549,1.1631,1.1711,1.18,1.1826,1.1867,1.1924,1.1927,1.1948,1.1963,1.1967,1.1981,1.1986,1.1937,1.1938,1.1938,1.1939,0,0,1.0978,1.1121,1.1132,1.1181,1.1288,1.1341,1.1403,1.149,1.1528,1.1602,1.1657,1.1759,1.178,1.1834,1.1883,1.1918,1.1939,1.1937,1.194,1.1935,1.2007,1.199,1.1995,1.1964,1.1966,1.1967,1.2,0,1.1002,1.1116,1.1181,1.1268,1.1331,1.1393,1.1448,1.152,1.1575,1.1637,1.1698,1.1769,1.1791,1.1824,1.1862,1.1928,1.1955,1.1927,1.2017,1.202,1.1993,1.2002,1.1984,1.2012,1.2006,1.2007,1.2007,0,1.1045,1.1118,1.1211,1.1311,1.134,1.1387,1.1472,1.1531,1.1614,1.1651,1.1711,1.176,1.1829,1.1837,1.1934,1.1913,1.1954,1.1992,1.1995,1.2007,1.2014,1.2014,1.2022,1.2026,1.2016,1.2015,1.2015,0,1.1015,1.1136,1.1208,1.1248,1.1366,1.1398,1.1449,1.1531,1.1579,1.1654,1.1686,1.1767,1.1812,1.1874,1.1944,1.1944,1.2034,1.2048,1.2068,1.2067,1.2085,1.2083,1.2101,1.211,1.211,1.211,1.211,0,1.1035,1.109,1.1196,1.124,1.1303,1.1378,1.1439,1.1495,1.1568,1.1625,1.1683,1.1735,1.1824,1.1887,1.1942,1.2014,1.2034,1.2067,1.2081,1.2063,1.2058,1.2091,1.2091,1.2111,1.2111,1.2111,1.2111,0,1.1013,1.1086,1.1168,1.1273,1.1301,1.1343,1.1433,1.1479,1.1536,1.1607,1.1628,1.1719,1.1797,1.1872,1.1977,1.2014,1.2085,1.2104,1.2057,1.2065,1.2081,1.2079,1.2121,1.213,1.2132,1.2132,1.2132,0,1.1021,1.1065,1.1174,1.1216,1.1265,1.1332,1.1381,1.1456,1.1505,1.1603,1.1637,1.1718,1.1788,1.1909,1.1985,1.2065,1.2086,1.2095,1.2099,1.2078,1.2087,1.2084,1.2089,1.2093,1.2093,1.2093,1.2092,0,1.1029,1.1063,1.1131,1.1212,1.1268,1.1336,1.1406,1.1436,1.1526,1.1578,1.1657,1.1711,1.1817,1.1897,1.1986,1.204,1.2081,1.2091,1.21,1.2081,1.2052,1.2069,1.2052,1.209,1.209,1.209,1.209,1.209,1.1023,1.1064,1.1148,1.1222,1.1282,1.1346,1.1394,1.1457,1.1525,1.1616,1.1657,1.1737,1.182,1.1943,1.1996,1.206,1.2071,1.2083,1.2087,1.2089,1.2085,1.2041,1.2077,1.2077,1.2077,1.2077,1.2077,0,1.1034,1.109,1.1158,1.1253,1.1311,1.1344,1.1423,1.147,1.154,1.1612,1.1679,1.1771,1.1849,1.1931,1.2014,1.205,1.2071,1.2069,1.2068,1.208,1.2071,1.2055,1.2051,1.2051,1.2051,1.2051,1.2051,1.2051,1.1046,1.1119,1.1163,1.1266,1.1323,1.1401,1.1443,1.1502,1.1561,1.166,1.1725,1.1778,1.1855,1.1944,1.2018,1.204,1.2068,1.2061,1.2088,1.2079,1.208,1.2082,1.2068,1.2066,1.2066,1.2092,1.2093,1.2093]},{"header":{"parameterUnit":"m.s-1","parameterCategory":1,"la1":30.2991,"la2":30.254,"lo1":-89.0895,"lo2":-89.0444,"dy":0.0017,"dx":0.0017,"nx":28,"ny":28,"refTime":"2025-04-26T21:00:00:Z","depth":0,"parameterNumber":3,"parameterNumberName":"V-component_of_WINDS"},"data":[0,0,0,0,0,0,0,0,0,0,0,0,0,0,0,0,0,0,0,0,0,0,0,0,0,0,0,0,0,0,0,0,0,0,0,0,0,0,0,0,0,0,0,0,0,0,0,0,0,0,0,0,0,0,0,0,0,0,3.202,3.2019,0,3.1977,3.1976,3.1976,3.2004,3.2006,3.2007,3.2008,3.1956,3.1953,3.1951,0,0,0,0,0,0,0,0,0,0,0,0,0,3.212,3.2118,3.202,3.2019,3.2019,3.1977,3.1976,3.1976,3.2004,3.2006,3.2007,3.2009,3.1957,3.1954,3.195,0,0,0,0,0,0,0,0,0,0,0,0,0,3.2076,3.2117,3.202,3.2028,3.2029,3.1977,3.1976,3.1976,3.2004,3.2006,3.2008,3.201,3.1958,3.1954,3.195,3.1886,0,0,3.1938,3.1936,0,0,0,0,0,0,0,0,3.2079,3.2072,3.2027,3.2028,3.2028,3.1998,3.1992,3.1945,3.2003,3.2013,3.2008,3.2011,3.1968,3.1963,3.195,3.1883,3.1881,3.1938,3.1935,3.1933,3.1932,0,0,0,0,0,0,0,3.2082,3.2074,3.2003,3.2027,3.2027,3.2032,3.2028,3.1983,3.1979,3.2012,3.2014,3.2009,3.1968,3.1954,3.1949,3.188,3.1938,3.1934,3.1932,3.193,3.1757,3.1755,0,0,0,0,0,0,3.2085,3.2077,3.2004,3.2001,3.2059,3.2028,3.2024,3.2005,3.198,3.1978,3.2007,3.2011,3.196,3.1954,3.1948,3.187,3.1933,3.193,3.1927,3.176,3.1757,3.1755,0,0,0,0,0,0,3.2087,3.2078,3.2006,3.204,3.2031,3.2024,3.2004,3.2004,3.199,3.1977,3.1975,3.1994,3.1961,3.1953,3.1901,3.1869,3.1928,3.1924,3.1762,3.1759,3.1756,3.1715,0,0,0,0,0,0,3.209,3.2079,3.2056,3.2039,3.2029,3.1962,3.2002,3.2001,3.1984,3.1987,3.1964,3.1962,3.1962,3.1907,3.1897,3.1864,3.1921,3.1765,3.1761,3.1757,3.1719,3.1711,3.1703,0,0,0,0,0,3.2093,3.2044,3.2055,3.2046,3.2001,3.196,3.1954,3.1958,3.1981,3.1957,3.1948,3.1962,3.1874,3.1902,3.1891,3.1856,3.1767,3.1762,3.1757,3.1723,3.1712,3.1704,0,0,0,0,0,0,3.2054,3.2042,3.2053,3.1998,3.198,3.1965,3.1935,3.1947,3.192,3.1924,3.1928,3.1922,3.1868,3.1857,3.1888,3.1792,3.1824,3.1817,3.1801,3.1791,3.1784,3.1787,3.1918,0,0,0,0,0,3.204,3.201,3.2001,3.1952,3.1943,3.1941,3.1923,3.1928,3.1909,3.19,3.1888,3.1867,3.1834,3.1812,3.1782,3.1718,3.1713,3.1689,3.1681,3.1675,3.1668,3.1633,3.1622,3.1738,3.1738,3.1738,0,0,3.2008,3.1998,3.1979,3.1944,3.1931,3.1899,3.1934,3.1898,3.1873,3.1894,3.1845,3.1835,3.1811,3.1754,3.1727,3.1743,3.1635,3.1669,3.1664,3.166,3.1627,3.1616,3.1606,3.1735,3.1735,3.1736,0,0,3.1934,3.1924,3.1883,3.187,3.1851,3.185,3.184,3.1823,3.1819,3.177,3.1786,3.1755,3.1699,3.1682,3.1665,3.1586,3.1598,3.1576,3.1534,3.15,3.1491,3.1483,3.1453,3.1443,3.1569,3.1569,3.1569,0,3.1896,3.185,3.186,3.1823,3.1807,3.1828,3.1785,3.1771,3.1742,3.1729,3.1748,3.1679,3.1664,3.1602,3.1583,3.157,3.1557,3.1578,3.1492,3.1484,3.1476,3.1448,3.1437,3.1567,3.1567,3.1567,3.1568,0,3.1805,3.1772,3.1741,3.1716,3.1696,3.1656,3.1658,3.1636,3.1643,3.164,3.1589,3.1573,3.154,3.1526,3.1531,3.1464,3.1474,3.1492,3.1524,3.1463,3.1436,3.1426,3.1563,3.1564,3.1565,3.1565,0,0,3.1702,3.1685,3.1673,3.1661,3.1643,3.1617,3.1578,3.1548,3.1529,3.1508,3.1474,3.1428,3.1445,3.1426,3.143,3.14,3.1337,3.1421,3.1421,3.1405,3.1262,3.1248,3.1235,3.1346,3.1344,3.1342,3.1264,0,3.1626,3.1561,3.1569,3.1505,3.1475,3.1496,3.1461,3.1445,3.1441,3.1413,3.1407,3.1373,3.1399,3.1388,3.136,3.1351,3.1308,3.1357,3.1312,3.131,3.1316,3.1222,3.1206,3.1133,3.1253,3.1252,3.1251,0,3.1528,3.1508,3.1442,3.1429,3.1417,3.1386,3.136,3.1333,3.1315,3.1314,3.1294,3.1303,3.1262,3.1296,3.1238,3.1271,3.1253,3.1246,3.1243,3.1237,3.1275,3.1212,3.1109,3.1098,3.1235,3.1236,3.1237,0,3.1459,3.1415,3.137,3.136,3.1343,3.1321,3.1313,3.1297,3.1279,3.1255,3.1243,3.1213,3.1197,3.1173,3.1173,3.1198,3.1113,3.1148,3.1109,3.1109,3.1089,3.109,3.098,3.108,3.108,3.108,3.108,0,3.1373,3.1331,3.1339,3.1311,3.1265,3.1274,3.1227,3.1221,3.1207,3.1176,3.1192,3.1162,3.1165,3.1135,3.1134,3.1086,3.1078,3.1074,3.1074,3.1072,3.1073,3.1059,3.1064,3.1077,3.1078,3.1078,3.1079,0,3.1286,3.129,3.1242,3.1232,3.1229,3.1195,3.1185,3.1158,3.1156,3.1117,3.1109,3.1104,3.107,3.1068,3.1027,3.1027,3.0968,3.0974,3.0975,3.0975,3.0937,3.094,3.0814,3.0797,3.0908,3.0907,3.0907,0,3.123,3.12,3.1187,3.117,3.1161,3.1132,3.1114,3.1122,3.1102,3.108,3.1055,3.1022,3.0997,3.094,3.0932,3.09,3.0905,3.0863,3.09,3.0899,3.0903,3.0905,3.0901,3.0855,3.0854,3.0853,3.0852,0,3.113,3.1134,3.1109,3.1086,3.1066,3.1046,3.1029,3.1013,3.1018,3.0995,3.0962,3.0942,3.0903,3.0869,3.084,3.0828,3.084,3.0841,3.083,3.0827,3.0828,3.0826,3.0954,3.0843,3.0844,3.0845,3.0845,3.0846,3.1056,3.103,3.1017,3.099,3.0978,3.0962,3.0936,3.0933,3.0906,3.0876,3.0882,3.0844,3.0826,3.0788,3.0774,3.0743,3.0757,3.0742,3.0738,3.0733,3.0729,3.0835,3.0738,3.0738,3.0738,3.0738,3.0739,0,3.0955,3.0949,3.0924,3.0901,3.0879,3.0896,3.0878,3.0857,3.0825,3.0809,3.0785,3.0746,3.0714,3.0705,3.0673,3.065,3.0655,3.0642,3.0643,3.064,3.0719,3.0731,3.0639,3.0639,3.0639,3.0639,3.0639,3.0639,3.09,3.0857,3.086,3.081,3.0804,3.0769,3.0757,3.0742,3.0729,3.0686,3.0662,3.0657,3.0642,3.0611,3.0582,3.058,3.0567,3.0551,3.0551,3.0624,3.0634,3.0644,3.0655,3.0549,3.0549,3.0475,3.0474,3.0474]}]]